Time,TemperatureF,DewpointF,PressureIn,WindDirection,WindDirectionDegrees,WindSpeedMPH,WindSpeedGustMPH,Humidity,HourlyPrecipIn,Conditions,Clouds,dailyrainin,SoftwareType,DateUTC
2013-06-24 00:00:00,73.1,71.3,30.18,SSE,150,0.0,3.0,94,0.00,,---,0.25,VWS V14.01,2013-06-24 04:00:00,
2013-06-24 00:30:00,72.2,70.4,30.18,SSE,150,0.0,0.0,94,0.00,,---,0.00,VWS V14.01,2013-06-24 04:30:00,
2013-06-24 01:00:00,71.8,70.0,30.18,SSE,150,0.0,0.0,94,0.00,,---,0.00,VWS V14.01,2013-06-24 05:00:00,
2013-06-24 01:30:00,71.4,69.6,30.19,SSE,150,0.0,1.0,94,0.00,,---,0.00,VWS V14.01,2013-06-24 05:30:00,
2013-06-24 02:00:00,71.2,69.4,30.19,SE,144,0.0,1.0,94,0.00,,---,0.00,VWS V14.01,2013-06-24 06:00:00,
2013-06-24 02:30:00,71.6,69.8,30.18,South,187,0.0,3.0,94,0.00,,---,0.00,VWS V14.01,2013-06-24 06:30:00,
2013-06-24 03:00:00,71.8,70.0,30.18,SSE,161,0.0,5.0,94,0.00,,---,0.00,VWS V14.01,2013-06-24 07:00:00,
2013-06-24 03:30:00,72.0,70.2,30.18,WSW,238,0.0,5.0,94,0.00,,---,0.00,VWS V14.01,2013-06-24 07:30:00,
2013-06-24 04:00:00,71.8,70.3,30.18,South,173,0.0,6.0,95,0.00,,---,0.00,VWS V14.01,2013-06-24 08:00:00,
2013-06-24 04:30:00,71.3,69.5,30.18,WSW,248,0.0,5.0,94,0.00,,---,0.00,VWS V14.01,2013-06-24 08:30:00,
2013-06-24 05:00:00,70.9,69.4,30.18,SW,236,0.0,6.0,95,0.00,,---,0.00,VWS V14.01,2013-06-24 09:00:00,
2013-06-24 05:30:00,70.5,68.7,30.18,South,180,0.0,4.0,94,0.00,,---,0.00,VWS V14.01,2013-06-24 09:30:00,
2013-06-24 06:00:00,70.3,68.5,30.17,WSW,257,0.0,2.0,94,0.00,,---,0.00,VWS V14.01,2013-06-24 10:00:00,
2013-06-24 06:30:00,70.2,68.4,30.18,West,261,0.0,2.0,94,0.00,,---,0.00,VWS V14.01,2013-06-24 10:30:00,
2013-06-24 07:00:00,70.0,68.2,30.18,West,261,0.0,0.0,94,0.00,,---,0.00,VWS V14.01,2013-06-24 11:00:00,
2013-06-24 07:30:00,71.1,69.3,30.18,SSW,212,0.0,3.0,94,0.00,,---,0.00,VWS V14.01,2013-06-24 11:30:00,
2013-06-24 08:00:00,72.7,71.2,30.19,SW,219,0.0,5.0,95,0.00,,---,0.00,VWS V14.01,2013-06-24 12:00:00,
2013-06-24 08:30:00,75.0,72.5,30.19,SW,221,0.0,5.0,92,0.00,,---,0.00,VWS V14.01,2013-06-24 12:30:00,
2013-06-24 09:00:00,76.8,73.3,30.19,WSW,248,4.0,10.0,89,0.00,,---,0.00,VWS V14.01,2013-06-24 13:00:00,
2013-06-24 09:30:00,78.3,74.1,30.18,South,179,0.0,9.0,87,0.00,,---,0.00,VWS V14.01,2013-06-24 13:30:00,
2013-06-24 10:00:00,80.0,74.0,30.19,SW,230,0.0,5.0,82,0.00,,---,0.00,VWS V14.01,2013-06-24 14:00:00,
2013-06-24 10:30:00,81.8,75.0,30.19,SSW,194,0.0,9.0,80,0.00,,---,0.00,VWS V14.01,2013-06-24 14:30:00,
2013-06-24 11:00:00,82.8,74.5,30.19,SW,236,0.0,9.0,76,0.00,,---,0.00,VWS V14.01,2013-06-24 15:00:00,
2013-06-24 11:30:00,83.2,74.1,30.19,ESE,108,0.0,10.0,74,0.00,,---,0.00,VWS V14.01,2013-06-24 15:30:00,
2013-06-24 12:00:00,84.0,75.6,30.19,SW,220,0.0,10.0,76,0.00,,---,0.00,VWS V14.01,2013-06-24 16:00:00,
2013-06-24 12:30:00,85.0,75.0,30.19,WSW,237,0.0,11.0,72,0.00,,---,0.00,VWS V14.01,2013-06-24 16:30:00,
2013-06-24 13:00:00,85.1,74.6,30.18,SSE,148,4.0,10.0,71,0.00,,---,0.00,VWS V14.01,2013-06-24 17:00:00,
2013-06-24 13:30:00,85.8,74.9,30.16,SSW,201,0.0,9.0,70,0.00,,---,0.00,VWS V14.01,2013-06-24 17:30:00,
2013-06-24 14:00:00,87.0,76.0,30.15,SSW,206,1.0,10.0,70,0.00,,---,0.00,VWS V14.01,2013-06-24 18:00:00,
2013-06-24 14:30:00,86.5,76.0,30.13,South,180,0.0,10.0,71,0.00,,---,0.00,VWS V14.01,2013-06-24 18:30:00,
2013-06-24 15:00:00,86.5,75.6,30.12,SSW,196,2.0,9.0,70,0.00,,---,0.00,VWS V14.01,2013-06-24 19:00:00,
2013-06-24 15:30:00,86.2,75.7,30.11,SW,221,4.0,7.0,71,0.00,,---,0.00,VWS V14.01,2013-06-24 19:30:00,
2013-06-24 16:00:00,86.9,75.9,30.09,South,178,3.0,10.0,70,0.00,,---,0.00,VWS V14.01,2013-06-24 20:00:00,
2013-06-24 16:30:00,86.7,74.4,30.09,WSW,239,0.0,10.0,67,0.00,,---,0.00,VWS V14.01,2013-06-24 20:30:00,
2013-06-24 17:00:00,86.9,75.1,30.08,South,186,1.0,7.0,68,0.00,,---,0.00,VWS V14.01,2013-06-24 21:00:00,
2013-06-24 17:30:00,85.0,75.4,30.08,SSW,196,1.0,12.0,73,0.00,,---,0.00,VWS V14.01,2013-06-24 21:30:00,
2013-06-24 18:00:00,84.1,75.3,30.09,South,173,0.0,11.0,75,0.00,,---,0.00,VWS V14.01,2013-06-24 22:00:00,
2013-06-24 18:30:00,84.2,75.8,30.08,SSE,147,4.0,6.0,76,0.00,,---,0.00,VWS V14.01,2013-06-24 22:30:00,
2013-06-24 19:00:00,82.1,74.9,30.08,SSE,158,0.0,4.0,79,0.00,,---,0.00,VWS V14.01,2013-06-24 23:00:00,
2013-06-24 19:30:00,82.2,75.4,30.08,SSE,159,0.0,6.0,80,0.00,,---,0.00,VWS V14.01,2013-06-24 23:30:00,
2013-06-24 20:00:00,81.2,75.6,30.08,SE,145,0.0,4.0,83,0.00,,---,0.00,VWS V14.01,2013-06-25 00:00:00,
2013-06-24 20:30:00,79.9,75.3,30.09,South,175,0.0,2.0,86,0.00,,---,0.00,VWS V14.01,2013-06-25 00:30:00,
2013-06-24 21:00:00,78.4,74.2,30.09,South,175,0.0,1.0,87,0.00,,---,0.00,VWS V14.01,2013-06-25 01:00:00,
2013-06-24 21:30:00,77.6,74.1,30.10,South,175,0.0,2.0,89,0.00,,---,0.00,VWS V14.01,2013-06-25 01:30:00,
2013-06-24 22:00:00,77.2,74.0,30.10,South,173,0.0,3.0,90,0.00,,---,0.00,VWS V14.01,2013-06-25 02:00:00,
2013-06-24 22:30:00,77.0,74.2,30.10,South,172,0.0,4.0,91,0.00,,---,0.00,VWS V14.01,2013-06-25 02:30:00,
2013-06-24 23:00:00,76.7,73.9,30.10,SSW,209,0.0,3.0,91,0.00,,---,0.00,VWS V14.01,2013-06-25 03:00:00,
2013-06-24 23:30:00,76.6,73.8,30.11,SW,226,0.0,6.0,91,0.00,,---,0.00,VWS V14.01,2013-06-25 03:30:00,